Regional Weather Roundup
Issued by NWS

Home | Current Version | Previous Version | Text Only | Print | Product List | Glossary Off
Versions: 1 2 3 4 5 6 7 8 9 10 11 12 13 14 15 16 17 18 19 20 21 22 23 24 25 26 27

000
ASUS45 KSLC 190610
RWRUT

UTAH REGIONAL WEATHER ROUNDUP
NATIONAL WEATHER SERVICE SALT LAKE CITY UT
1100 PM MST SAT NOV 18 2017

UTZ001>011-023>025-190700-

NORTHERN UTAH

CITY           SKY/WX    TMP DP  RH WIND       PRES   REMARKS
BRIGHAM CITY   MOCLDY    30  26  86 CALM      30.36S
HILL AFB       PTCLDY    28  20  71 E15       30.33F WCI  16
LOGAN          MOCLDY    27  22  81 CALM      30.35F
OGDEN          PTCLDY    29  21  72 S8        30.34F WCI  21
SALT LAKE CITY PTCLDY    32  24  72 S7        30.34F WCI  26
TOOELE VALLEY  CLEAR     27  21  80 S8        30.35F WCI  18
WENDOVER       CLEAR     29  22  75 CALM      30.35F
HEBER CITY       N/A     21  18  86 SE3       30.34S
WEST JORDAN    CLEAR     28  22  80 SW3       30.34F

$$

UTZ011>015-024>027-190700-

CENTRAL/NORTHEAST UTAH

CITY           SKY/WX    TMP DP  RH WIND       PRES   REMARKS
PROVO AIRPORT  PTCLDY    25  22  88 E5        30.37F WCI  19
MOAB/CANYONLAN CLEAR     25   1  35 W5        30.39R WCI  19
DELTA          PTCLDY    21  14  73 CALM      30.34F
PRICE          CLEAR     22   5  48 N6        30.37S WCI  14
ROOSEVELT      CLOUDY    21  14  73 CALM      30.41S
VERNAL         CLOUDY    23  11  60 W7        30.39S WCI  15

$$

UTZ013>016-019>022-027-190700-

SOUTHERN UTAH

CITY           SKY/WX    TMP DP  RH WIND       PRES   REMARKS
BRYCE CANYON   CLEAR      7   4  87 W5        30.37R WCI  -2
CEDAR CITY     PTCLDY    23  17  78 CALM      30.32R
MILFORD        CLEAR     21  14  74 W8        30.33F WCI  11
ST GEORGE      PTCLDY    41   8  25 SE3       30.30S
HANKSVILLE     CLEAR     21   1  42 MISG      30.43S
BLANDING         N/A     24   6  46 N6        30.44S WCI  17

$$

REGIONAL REPORTS     COLORADO/ARIZONA

CITY           SKY/WX    TMP DP  RH WIND       PRES   REMARKS
CRAIG, CO      CLOUDY    13   7  77 E3        30.38S
GRAND JUNCTION CLOUDY    21  16  81 SE3       30.40S
RIFLE, CO      CLOUDY    23  18  81 SE3       30.43S
MONTROSE, CO   CLOUDY    24  19  81 SE9       30.43S WCI  14
CORTEZ, CO     CLOUDY    17   9  70 E7        30.39S WCI   8
COLORADO CITY    N/A     41   7  24 NE12      30.33S
PAGE, AZ       PTCLDY    35   8  32 CALM      30.36S
GRAND CANYON   MOCLDY    32  -1  24 E6        30.32F WCI  26
KINGMAN, AZ    PTCLDY    37  10  32 E9        30.24S WCI  30
FLAGSTAFF, AZ  PTCLDY    16  -1  47 CALM      30.34S

$$

REGIONAL REPORTS    NEVADA/IDAHO/WYOMING

CITY           SKY/WX    TMP DP  RH WIND       PRES   REMARKS
LAS VEGAS, NV  PTCLDY    48  12  23 SW6       30.23S
ELY, NY        CLEAR     15   8  73 S9        30.31R WCI   3
ELKO, NV       CLEAR     24  19  81 E3        30.28S
POCATELLO, ID  CLOUDY    28  21  75 NE3       30.32F
BURLEY, ID     MOCLDY    27  23  85 CALM      30.29R
FORT BRIDGER,    N/A     17  11  79 W7        30.34S WCI   7
EVANSTON, WY   CLOUDY    17  15  92 SE6       30.30F WCI   9
ROCK SPRINGS,  CLOUDY    16   9  74 N3        30.32S

$$




USA.gov is the U.S. government's official web portal to all federal, state and local government web resources and services.